Regional Weather Roundup
Issued by NWS Little Rock, AR

Home | Current Version | Previous Version | Graphics & Text | Print | Product List | Glossary On
Versions: 1 2 3 4 5 6 7 8 9 10 11 12 13 14 15 16 17 18 19 20 21 22 23 24 25 26 27 28 29 30 31 32 33 34 35 36 37 38 39 40 41 42 43 44 45 46 47 48 49 50
000
ASUS44 KLZK 191905
RWRLZK

WEATHER ROUNDUP FOR ARKANSAS
NATIONAL WEATHER SERVICE LITTLE ROCK AR
100 PM CST MON FEB 19 2018

NOTE: "FAIR" INDICATES FEW OR NO CLOUDS BELOW 12,000 FEET WITH NO
SIGNIFICANT WEATHER AND/OR OBSTRUCTIONS TO VISIBILITY.

ARZ001-003-010-029-192000-
NORTHWEST ARKANSAS

CITY           SKY/WX    TMP DP  RH WIND       PRES   REMARKS
FAYETTEVILLE   CLOUDY    63  62  97 S18G25    29.85F
FORT SMITH     CLOUDY    71  60  68 S9        29.87F
HARRISON       CLOUDY    64  59  83 S16G29    29.89F
BENTONVILLE    CLOUDY    64  60  87 S18G29    29.84F
ROGERS         CLOUDY    64  61  90 S23G35    29.84F
SILOAM SPGS    CLOUDY    65  61  87 S24G36    29.83F
HIGHFILL       CLOUDY    63  62  97 S20G29    29.84F
SPRINGDALE     CLOUDY    63  63 100 S14G25    29.87F FOG
$$

ARZ004-005-016-192000-
NORTH CENTRAL ARKANSAS

CITY           SKY/WX    TMP DP  RH WIND       PRES   REMARKS
BATESVILLE     CLOUDY    73  59  61 S12G22    29.98F
FLIPPIN        CLOUDY    67  58  72 S14G23    29.91F
MTN HOME       CLOUDY    66  59  78 SW17G26   29.91F
$$

ARZ040-041-192000-
WEST CENTRAL ARKANSAS

CITY           SKY/WX    TMP DP  RH WIND       PRES   REMARKS
MENA           PTSUNNY   72  68  88 S10       29.92F
MOUNT IDA      CLOUDY    72  61  68 S10G21    29.92F
$$

ARZ009-017-025-026-028-192000-
NORTHEAST ARKANSAS

CITY           SKY/WX    TMP DP  RH WIND       PRES   REMARKS
JONESBORO      CLOUDY    69  63  81 S20G35    30.01F
NEWPORT          N/A     70  61  73 S15G26    29.99F
WALNUT RIDGE   PTSUNNY   71  61  70 S29G36    29.97F
BLYTHEVILLE    CLOUDY    72  63  73 SW24      30.03F
$$

ARZ022-023-033-042-044-192000-
CENTRAL ARKANSAS

CITY           SKY/WX    TMP DP  RH WIND       PRES   REMARKS
LITTLE ROCK    PTSUNNY   74  61  63 S14G23    29.98F
N LITTLE ROCK    N/A     71  62  71 S15G23    29.94F
JACKSONVILLE   FAIR      73  61  66 S13G22    29.96F
SEARCY         PTSUNNY   72  63  73 S18G30    29.97F
HOT SPRINGS    PTSUNNY   74  61  63 S12       29.97F
RUSSELLVILLE   PTSUNNY   71  60  68 S13G22    29.92F
CLINTON        CLOUDY    68  59  73 S9        29.96F
$$

ARZ036-192000-
EAST ARKANSAS

CITY           SKY/WX    TMP DP  RH WIND       PRES   REMARKS
WEST MEMPHIS   FAIR      72  64  76 S21G33    30.02F
$$

ARZ050-053-066-070-073-192000-
SOUTHWEST ARKANSAS

CITY           SKY/WX    TMP DP  RH WIND       PRES   REMARKS
ARKADELPHIA    MOCLDY    75  61  61 S14G23    29.98F
CAMDEN         PTSUNNY   77  59  53 S18       29.99F
TEXARKANA      PTSUNNY   73  62  68 S16G28    29.94F
EL DORADO      FAIR      74  64  71 S12       29.99F
DE QUEEN       CLOUDY    73  63  70 S13G20    29.90F
$$

ARZ056-057-069-192000-
SOUTHEAST ARKANSAS

CITY           SKY/WX    TMP DP  RH WIND       PRES   REMARKS
PINE BLUFF     FAIR      74  60  61 S21       30.01F
STUTTGART      CLOUDY    74  62  66 S28G35    30.00F
MONTICELLO     PTSUNNY   72  62  71 S14G22    30.02F

$$





USA.gov is the U.S. government's official web portal to all federal, state and local government web resources and services.